Location: Auttagershofen
(48.1940°N, 10.0237°E)
Time: 21:13:49
(UTC+00:00)

Cosmos 1758 - Pass Details

Date: 18 January 2026
Orbit: 479 x 500 km, 82.5° (Epoch: 17 February)

Event Time Altitude Azimuth Distance (km) Brightness Sun altitude
Rises 05:28:19 0° 208° (SSW) 2,577 6.6 -15.5°
Reaches altitude 10° 05:30:32 10° 217° (SW) 1,695 5.6 -15.1°
Maximum altitude 05:34:00 36° 285° (WNW) 800 3.6 -14.6°
Drops below altitude 10° 05:37:27 10° 354° (N) 1,696 5.6 -14.0°
Sets 05:39:41 0° 3° (N) 2,579 6.6 -13.6°
